Location: Caltech
(34.1382°N, 118.1253°W)
Time: 09:57:48
(UTC-07:00)

TMSAT-1 - Visible Passes

Search period start: 23 May 2017 00:00
Search period end: 02 June 2017 00:00
Orbit: 808 x 813 km, 98.6° (Epoch: 22 May)

Date Brightness Start Highest point End Pass type
(mag) Time Alt. Az. Time Alt. Az. Time Alt. Az.
23 May 10.1 02:20:50 10° NNE 02:25:33 38° E 02:25:33 38° E visible
23 May 10.5 04:01:19 10° NNW 04:05:21 23° WNW 04:06:42 20° W visible
24 May 10.9 01:57:56 10° NE 02:01:41 22° E 02:01:41 22° E visible
24 May 9.8 03:37:06 10° N 03:41:57 37° WNW 03:42:51 35° W visible
25 May 11.5 01:35:58 10° ENE 01:37:50 13° E 01:37:50 13° E visible
25 May 9.1 03:13:12 10° N 03:18:27 64° WNW 03:18:59 60° WSW visible
26 May 9.0 02:49:34 10° NNE 02:54:53 76° ESE 02:55:07 74° SE visible
26 May 11.1 04:32:15 10° NW 04:34:04 12° WNW 04:35:53 10° W visible
27 May 9.8 02:26:12 10° NNE 02:31:15 43° E 02:31:16 43° E visible
27 May 10.6 04:07:00 10° NNW 04:10:46 20° WNW 04:12:25 17° W visible
28 May 10.7 02:03:10 10° NE 02:07:23 25° E 02:07:23 25° E visible
28 May 10.0 03:42:40 10° N 03:47:22 33° WNW 03:48:32 30° W visible
29 May 11.4 01:40:51 10° ENE 01:43:31 15° E 01:43:31 15° E visible
29 May 9.2 03:18:43 10° N 03:23:54 56° WNW 03:24:40 51° WSW visible
30 May 8.9 02:55:01 10° NNE 03:00:21 86° ESE 03:00:48 75° S visible
30 May 11.3 04:38:51 10° NW 04:39:27 10° WNW 04:40:02 10° WNW visible
31 May 9.6 02:31:34 10° NNE 02:36:43 50° E 02:36:56 49° ESE visible
31 May 10.8 04:12:43 10° NNW 04:16:10 18° WNW 04:18:05 15° W visible
01 Jun 10.5 02:08:27 10° NE 02:13:01 29° E 02:13:03 29° E visible
01 Jun 10.2 03:48:16 10° N 03:52:48 29° WNW 03:54:13 26° W visible
